Location: Sears
(37.7625°N, 100.1060°W)
Time: 21:57:41
(UTC+00:00)

deb Chang Zheng 4 - Pass Details

Date: 29 October 2020
Orbit: 602 x 624 km, 98.6° (Epoch: 01 December)

Event Time Altitude Azimuth Distance (km) Brightness Sun altitude
Rises 12:01:06 0° 2° (N) 2,864 6.9 -12.8°
Reaches altitude 10° 12:03:27 10° 352° (N) 1,959 6.0 -12.4°
Maximum altitude 12:07:12 31° 290° (WNW) 1,061 4.2 -11.6°
Drops below altitude 10° 12:10:58 10° 227° (SW) 1,957 5.8 -10.9°
Sets 12:13:18 0° 218° (SW) 2,861 6.7 -10.4°
